KJ6WEG Weather Reports


Display with metric or nautical units.
time (UTC)temp
F
wind
direction
speed
MPH
gust
MPH
rain 1hr
in
rain 24hr
in
rain mn
in
humidity
%
barometer
mb
20260508145054 53 138 4.0 10.0 0.00 0.00 0.00 88 1019.2
20260508144556 53 200 4.0 10.0 0.00 0.00 0.00 89 1019.1
20260508144054 53 150 4.0 10.0 0.00 0.00 0.00 88 1019.1
20260508143554 53 161 5.0 9.0 0.00 0.00 0.00 88 1019.1
20260508143114 53 159 3.0 8.0 0.00 0.00 0.00 88 1019.1
20260508142556 53 240 4.0 8.0 0.00 0.00 0.00 88 1019.1
20260508142056 53 246 2.0 10.0 0.00 0.00 0.00 88 1019.1
20260508141602 53 190 3.0 11.0 0.00 0.00 0.00 88 1019.1
20260508141052 53 184 4.0 12.0 0.00 0.00 0.00 88 1018.9
20260508140551 53 236 6.0 12.0 0.00 0.00 0.00 88 1018.9
20260508140112 53 222 2.0 8.0 0.00 0.00 0.00 88 1019.0
20260508135555 53 159 4.0 8.0 0.00 0.00 0.00 88 1018.9
20260508135055 53 155 4.0 8.0 0.00 0.00 0.00 88 1018.9
20260508134554 53 169 2.0 7.0 0.00 0.00 0.00 88 1018.9
20260508134051 53 214 2.0 11.0 0.00 0.00 0.00 88 1018.8
20260508133556 53 194 4.0 11.0 0.00 0.00 0.00 88 1018.6
20260508133101 53 152 5.0 11.0 0.00 0.00 0.00 88 1018.7
20260508132554 53 173 3.0 9.0 0.00 0.00 0.00 89 1018.5
20260508132054 53 215 3.0 9.0 0.00 0.00 0.00 88 1018.6
20260508131555 53 164 3.0 9.0 0.00 0.00 0.00 89 1018.5
20260508131108 53 165 2.0 11.0 0.00 0.00 0.00 89 1018.5
20260508130554 53 194 3.0 11.0 0.00 0.00 0.00 88 1018.6
20260508130053 53 177 5.0 9.0 0.00 0.00 0.00 88 1018.7
20260508125556 53 171 3.0 10.0 0.00 0.00 0.00 89 1018.5
20260508125052 53 171 3.0 10.0 0.00 0.00 0.00 88 1018.6
20260508124555 53 159 4.0 8.0 0.00 0.00 0.00 89 1018.6
20260508124054 53 180 2.0 9.0 0.00 0.00 0.00 89 1018.5
20260508123554 53 156 3.0 9.0 0.00 0.00 0.00 89 1018.5
20260508123054 53 212 3.0 10.0 0.00 0.00 0.00 89 1018.5
20260508122554 53 178 3.0 10.0 0.00 0.00 0.00 89 1018.5
20260508122054 53 168 5.0 10.0 0.00 0.00 0.00 89 1018.5
20260508121553 53 198 4.0 10.0 0.00 0.00 0.00 89 1018.4
20260508121054 53 194 4.0 10.0 0.00 0.00 0.00 90 1018.5
20260508120553 53 209 4.0 9.0 0.00 0.00 0.00 89 1018.4
20260508120113 53 129 3.0 10.0 0.00 0.00 0.00 89 1018.5
20260508115558 53 162 5.0 10.0 0.00 0.00 0.00 90 1018.6
20260508115054 53 169 3.0 9.0 0.00 0.00 0.00 90 1018.5
20260508114604 53 193 4.0 11.0 0.00 0.00 0.00 90 1018.5
20260508114056 53 167 3.0 11.0 0.00 0.00 0.00 90 1018.6
20260508113555 53 182 5.0 10.0 0.00 0.00 0.00 90 1018.8
20260508113102 53 171 4.0 9.0 0.00 0.00 0.00 90 1018.7
20260508112554 53 153 3.0 12.0 0.00 0.00 0.00 90 1018.7
20260508112055 53 245 3.0 12.0 0.00 0.00 0.00 90 1018.7
20260508111556 53 209 3.0 10.0 0.00 0.00 0.00 90 1018.6
20260508111055 53 237 3.0 13.0 0.00 0.00 0.00 90 1018.6
20260508110553 53 149 3.0 13.0 0.00 0.00 0.00 90 1018.5
20260508110107 53 172 3.0 13.0 0.00 0.00 0.00 90 1018.5
20260508105555 53 216 4.0 13.0 0.00 0.00 0.00 91 1018.6
20260508105054 53 169 6.0 9.0 0.00 0.00 0.00 91 1018.6
20260508104554 53 148 3.0 8.0 0.00 0.00 0.00 91 1018.6
20260508104057 53 171 4.0 9.0 0.00 0.00 0.00 91 1018.7
20260508103554 53 162 4.0 10.0 0.00 0.00 0.00 91 1018.8
20260508103059 53 163 2.0 12.0 0.00 0.00 0.00 91 1018.7
20260508102553 53 196 3.0 12.0 0.00 0.00 0.00 91 1018.7
20260508102057 53 167 2.0 9.0 0.00 0.00 0.00 91 1018.8
20260508101602 53 227 3.0 10.0 0.00 0.00 0.00 90 1018.7
20260508101058 53 227 3.0 10.0 0.00 0.00 0.00 90 1018.8
20260508100557 53 201 3.0 9.0 0.00 0.00 0.00 90 1018.7
20260508100131 53 197 3.0 9.0 0.00 0.00 0.00 90 1018.8
20260508095554 53 211 3.0 9.0 0.00 0.00 0.00 90 1018.9
20260508095055 53 234 3.0 9.0 0.00 0.00 0.00 90 1018.8
20260508094556 53 169 4.0 9.0 0.00 0.00 0.00 90 1018.8
20260508094055 53 210 4.0 9.0 0.00 0.00 0.00 90 1018.9
20260508093554 53 190 4.0 10.0 0.00 0.00 0.00 89 1018.8
20260508093057 53 246 4.0 10.0 0.00 0.00 0.00 89 1018.8
20260508092553 53 192 5.0 10.0 0.00 0.00 0.00 89 1018.8
20260508092054 53 160 3.0 8.0 0.00 0.00 0.00 89 1018.8
20260508091616 53 171 2.0 9.0 0.00 0.00 0.00 89 1018.7
20260508091059 53 171 4.0 9.0 0.00 0.00 0.00 89 1018.6
20260508090557 53 258 2.0 8.0 0.00 0.00 0.00 89 1018.6
20260508085553 53 201 3.0 8.0 0.00 0.00 0.00 89 1018.6
20260508085054 53 223 2.0 8.0 0.00 0.00 0.00 89 1018.5
20260508084611 53 200 3.0 8.0 0.00 0.00 0.00 89 1018.6
20260508084055 53 192 3.0 10.0 0.00 0.00 0.00 89 1018.6
20260508083554 53 189 4.0 11.0 0.00 0.00 0.00 89 1018.7
20260508083101 53 196 3.0 12.0 0.00 0.00 0.00 89 1018.6
20260508082553 53 250 3.0 12.0 0.00 0.00 0.00 89 1018.6
20260508082053 54 162 4.0 12.0 0.00 0.00 0.00 89 1018.6
20260508081613 54 176 3.0 9.0 0.00 0.00 0.00 89 1018.6
20260508081054 54 171 4.0 8.0 0.00 0.00 0.00 89 1018.6
20260508080554 54 125 3.0 8.0 0.00 0.00 0.00 89 1018.7
20260508075554 54 167 4.0 9.0 0.00 0.00 0.00 89 1018.6
20260508075054 54 137 4.0 9.0 0.00 0.00 0.00 89 1018.6
20260508074559 54 140 3.0 10.0 0.00 0.00 0.00 89 1018.6
20260508074055 54 155 4.0 10.0 0.00 0.00 0.00 89 1018.7
20260508073555 54 163 4.0 8.0 0.00 0.00 0.00 89 1018.6
20260508073100 54 184 3.0 7.0 0.00 0.00 0.00 89 1018.5
20260508072553 54 178 3.0 9.0 0.00 0.00 0.00 90 1018.5
20260508072056 54 169 3.0 10.0 0.00 0.00 0.00 90 1018.5
20260508071556 54 196 4.0 10.0 0.00 0.00 0.00 90 1018.4
20260508071054 54 173 4.0 8.0 0.00 0.00 0.00 90 1018.4
20260508070554 54 173 3.0 7.0 0.00 0.00 0.00 90 1018.5
20260508070059 54 172 2.0 8.0 0.00 0.00 0.00 90 1018.5
20260508065555 54 211 2.0 9.0 0.00 0.00 0.00 90 1018.6
20260508065053 54 161 3.0 9.0 0.00 0.00 0.00 90 1018.5
20260508064559 54 168 4.0 10.0 0.00 0.00 0.00 90 1018.5
20260508064054 54 162 4.0 10.0 0.00 0.00 0.00 90 1018.6
20260508063554 54 167 5.0 11.0 0.00 0.00 0.00 90 1018.5
20260508063100 54 167 3.0 11.0 0.00 0.00 0.00 90 1018.5
20260508062556 54 239 4.0 11.0 0.00 0.00 0.00 90 1018.6
20260508062055 54 158 3.0 9.0 0.00 0.00 0.00 90 1018.6
20260508061604 54 200 3.0 11.0 0.00 0.00 0.00 90 1018.7
20260508061054 54 253 5.0 12.0 0.00 0.00 0.00 90 1018.7
20260508060553 54 149 4.0 12.0 0.00 0.00 0.00 90 1018.6
20260508060111 54 186 4.0 10.0 0.00 0.00 0.00 90 1018.6
20260508055553 54 161 4.0 10.0 0.00 0.00 0.00 90 1018.7
20260508055054 54 170 4.0 9.0 0.00 0.00 0.00 90 1018.7
20260508054640 54 209 2.0 8.0 0.00 0.00 0.00 91 1018.6
20260508054056 54 202 3.0 8.0 0.00 0.00 0.00 91 1018.5
20260508053554 54 217 2.0 9.0 0.00 0.00 0.00 91 1018.6
20260508053057 54 198 3.0 9.0 0.00 0.00 0.00 91 1018.6
20260508052554 54 217 3.0 8.0 0.00 0.00 0.00 91 1018.7
20260508052054 54 196 2.0 6.0 0.00 0.00 0.00 91 1018.7
20260508051554 54 238 2.0 9.0 0.00 0.00 0.00 91 1018.6
20260508051054 54 213 3.0 9.0 0.00 0.00 0.00 92 1018.6
20260508050554 54 240 1.0 9.0 0.00 0.00 0.00 92 1018.6
20260508050058 54 227 2.0 9.0 0.00 0.00 0.00 92 1018.5
20260508045554 54 211 2.0 8.0 0.00 0.00 0.00 92 1018.5
20260508045054 54 232 1.0 8.0 0.00 0.00 0.00 92 1018.5
20260508044554 54 169 2.0 6.0 0.00 0.00 0.00 92 1018.5
20260508044056 54 243 1.0 8.0 0.00 0.00 0.00 92 1018.5
20260508043554 54 211 2.0 8.0 0.00 0.00 0.00 93 1018.4
20260508043058 54 159 3.0 9.0 0.00 0.00 0.00 92 1018.3
20260508042556 54 190 4.0 9.0 0.00 0.00 0.00 92 1018.3
20260508042054 54 235 2.0 7.0 0.00 0.00 0.00 92 1018.3
20260508041558 54 156 3.0 7.0 0.00 0.00 0.00 92 1018.3
20260508041053 54 182 1.0 8.0 0.00 0.00 0.00 92 1018.2
20260508040554 54 194 4.0 9.0 0.00 0.00 0.00 92 1018.1
20260508040056 54 272 3.0 9.0 0.00 0.00 0.00 92 1018.2
20260508035620 54 191 3.0 9.0 0.00 0.00 0.00 92 1018.2
20260508035056 54 173 3.0 9.0 0.00 0.00 0.00 92 1018.1
20260508034553 54 197 3.0 12.0 0.00 0.00 0.00 92 1018.1
20260508034053 54 198 3.0 12.0 0.00 0.00 0.00 92 1017.9
20260508033554 54 222 3.0 11.0 0.00 0.00 0.00 92 1017.9
20260508033054 54 237 3.0 10.0 0.00 0.00 0.00 92 1017.9
20260508032555 54 222 4.0 10.0 0.00 0.00 0.00 91 1017.8
20260508032051 55 227 3.0 8.0 0.00 0.00 0.00 91 1017.7
20260508031600 55 209 3.0 9.0 0.00 0.00 0.00 91 1017.6
20260508031054 55 199 3.0 9.0 0.00 0.00 0.00 90 1017.5
20260508030551 55 194 2.0 8.0 0.00 0.00 0.00 90 1017.5
20260508030105 56 270 2.0 9.0 0.00 0.00 0.00 90 1017.4
20260508025554 56 223 3.0 9.0 0.00 0.00 0.00 89 1017.4
20260508025054 56 250 2.0 9.0 0.00 0.00 0.00 89 1017.4
20260508024605 56 215 2.0 10.0 0.00 0.00 0.00 88 1017.4
20260508024054 57 221 3.0 10.0 0.00 0.00 0.00 87 1017.4
20260508023554 57 221 3.0 7.0 0.00 0.00 0.00 87 1017.4
20260508023055 58 227 1.0 10.0 0.00 0.00 0.00 87 1017.2
20260508022557 58 173 2.0 10.0 0.00 0.00 0.00 86 1017.2
20260508022055 58 216 2.0 8.0 0.00 0.00 0.00 85 1017.3
20260508021554 59 242 1.0 8.0 0.00 0.00 0.00 85 1017.4
20260508021055 59 225 2.0 8.0 0.00 0.00 0.00 84 1017.3
20260508020555 59 255 1.0 8.0 0.00 0.00 0.00 85 1017.4
20260508020105 59 0 1.0 7.0 0.00 0.00 0.00 85 1017.3
20260508015555 59 214 2.0 8.0 0.00 0.00 0.00 85 1017.3
20260508015056 59 254 1.0 9.0 0.00 0.00 0.00 85 1017.3
20260508014606 59 259 2.0 9.0 0.00 0.00 0.00 84 1017.4
20260508014054 60 286 2.0 9.0 0.00 0.00 0.00 84 1017.4
20260508013555 59 240 3.0 9.0 0.00 0.00 0.00 85 1017.4
20260508013056 59 197 2.0 9.0 0.00 0.00 0.00 85 1017.2
20260508012556 59 221 3.0 9.0 0.00 0.00 0.00 85 1017.3
20260508012056 59 238 3.0 8.0 0.00 0.00 0.00 85 1017.4
20260508011554 59 269 2.0 10.0 0.00 0.00 0.00 85 1017.4
20260508011054 59 218 3.0 10.0 0.00 0.00 0.00 84 1017.4
20260508010554 59 241 2.0 8.0 0.00 0.00 0.00 84 1017.5
20260508010059 59 337 2.0 8.0 0.00 0.00 0.00 85 1017.4
20260508005556 59 241 4.0 11.0 0.00 0.00 0.00 84 1017.5
20260508005052 59 235 3.0 12.0 0.00 0.00 0.00 83 1017.5
20260508004557 60 208 4.0 12.0 0.00 0.00 0.00 83 1017.6
20260508004055 60 205 2.0 8.0 0.00 0.00 0.00 84 1017.6
20260508003556 60 236 2.0 10.0 0.00 0.00 0.00 84 1017.7
20260508003054 59 205 3.0 11.0 0.00 0.00 0.00 84 1017.6
20260508002553 59 200 5.0 13.0 0.00 0.00 0.00 84 1017.7
20260508002055 60 212 5.0 13.0 0.00 0.00 0.00 83 1017.7
20260508001554 60 197 3.0 12.0 0.00 0.00 0.00 83 1017.7
20260508001055 60 219 4.0 12.0 0.00 0.00 0.00 82 1017.8
20260508000555 60 267 3.0 11.0 0.00 0.00 0.00 83 1017.7
20260508000058 60 246 3.0 12.0 0.00 0.00 0.00 83 1017.7
20260507235555 60 265 4.0 12.0 0.00 0.00 0.00 83 1017.8
20260507235054 60 257 5.0 12.0 0.00 0.00 0.00 82 1017.7
20260507234559 60 213 4.0 11.0 0.00 0.00 0.00 83 1017.8
20260507234055 60 250 3.0 11.0 0.00 0.00 0.00 82 1017.9
20260507233556 60 238 5.0 12.0 0.00 0.00 0.00 82 1017.9
20260507233053 60 213 4.0 12.0 0.00 0.00 0.00 82 1017.8
20260507232554 60 258 5.0 12.0 0.00 0.00 0.00 82 1017.9
20260507232054 61 194 5.0 11.0 0.00 0.00 0.00 81 1018.0
20260507231554 61 281 3.0 13.0 0.00 0.00 0.00 81 1018.0
20260507231058 61 294 3.0 14.0 0.00 0.00 0.00 82 1018.0
20260507230559 61 260 4.0 14.0 0.00 0.00 0.00 82 1018.0
20260507230056 61 153 5.0 12.0 0.00 0.00 0.00 81 1018.0
20260507225555 61 235 3.0 14.0 0.00 0.00 0.00 81 1018.0
20260507225056 61 263 4.0 14.0 0.00 0.00 0.00 82 1017.9
20260507224557 61 238 4.0 12.0 0.00 0.00 0.00 81 1018.0
20260507224055 62 213 5.0 12.0 0.00 0.00 0.00 80 1017.9
20260507223556 63 265 3.0 10.0 0.00 0.00 0.00 79 1018.0
20260507223058 64 223 1.0 10.0 0.00 0.00 0.00 78 1018.0
20260507222555 63 217 2.0 10.0 0.00 0.00 0.00 79 1018.0
20260507222052 63 0 3.0 10.0 0.00 0.00 0.00 79 1018.0
20260507221555 64 236 2.0 8.0 0.00 0.00 0.00 79 1018.0
20260507221056 63 238 2.0 9.0 0.00 0.00 0.00 80 1018.1
20260507220555 63 226 2.0 9.0 0.00 0.00 0.00 79 1018.2
20260507220055 63 227 2.0 10.0 0.00 0.00 0.00 80 1018.2
20260507215556 62 211 3.0 10.0 0.00 0.00 0.00 80 1018.3
20260507215056 62 240 3.0 11.0 0.00 0.00 0.00 80 1018.3
20260507214554 62 257 2.0 11.0 0.00 0.00 0.00 80 1018.4
20260507214054 63 242 3.0 11.0 0.00 0.00 0.00 80 1018.4
20260507213552 63 310 3.0 9.0 0.00 0.00 0.00 79 1018.5
20260507213056 63 279 2.0 10.0 0.00 0.00 0.00 81 1018.5
20260507212551 62 0 2.0 10.0 0.00 0.00 0.00 79 1018.7
20260507212055 62 153 2.0 9.0 0.00 0.00 0.00 81 1018.5
20260507211600 62 234 3.0 10.0 0.00 0.00 0.00 80 1018.7
20260507211055 62 222 1.0 10.0 0.00 0.00 0.00 80 1018.8
20260507210556 62 286 4.0 10.0 0.00 0.00 0.00 80 1018.9
20260507210059 62 221 2.0 8.0 0.00 0.00 0.00 79 1018.9
20260507205556 62 237 2.0 11.0 0.00 0.00 0.00 80 1018.9
20260507205055 62 273 1.0 11.0 0.00 0.00 0.00 81 1018.9
20260507204556 62 254 3.0 9.0 0.00 0.00 0.00 79 1019.0
20260507204055 62 215 2.0 9.0 0.00 0.00 0.00 81 1019.1
20260507203555 62 242 2.0 9.0 0.00 0.00 0.00 81 1019.0
20260507203103 62 261 2.0 8.0 0.00 0.00 0.00 81 1019.1
20260507202555 62 213 2.0 8.0 0.00 0.00 0.00 81 1019.1
20260507202056 61 240 2.0 9.0 0.00 0.00 0.00 81 1019.0
20260507201601 61 306 3.0 10.0 0.00 0.00 0.00 82 1019.1
20260507201058 61 297 3.0 10.0 0.00 0.00 0.00 81 1019.1
20260507200556 61 244 2.0 9.0 0.00 0.00 0.00 82 1019.3
20260507200055 61 291 3.0 9.0 0.00 0.00 0.00 81 1019.2
20260507195554 61 266 2.0 7.0 0.00 0.00 0.00 81 1019.3
20260507195055 61 288 1.0 7.0 0.00 0.00 0.00 81 1019.3
20260507194556 60 226 2.0 7.0 0.00 0.00 0.00 81 1019.4
20260507194055 61 201 3.0 10.0 0.00 0.00 0.00 80 1019.5
20260507193555 61 273 1.0 10.0 0.00 0.00 0.00 80 1019.5
20260507193052 61 296 2.0 10.0 0.00 0.00 0.00 80 1019.5
20260507192551 61 211 2.0 9.0 0.00 0.00 0.00 80 1019.5
20260507192053 61 219 2.0 10.0 0.00 0.00 0.00 80 1019.5
20260507191605 61 0 2.0 10.0 0.00 0.00 0.00 80 1019.6
20260507191055 61 288 1.0 6.0 0.00 0.00 0.00 79 1019.6
20260507190553 61 276 1.0 5.0 0.00 0.00 0.00 80 1019.6
20260507190059 61 257 1.0 6.0 0.00 0.00 0.00 80 1019.6
20260507185552 61 234 2.0 8.0 0.00 0.00 0.00 80 1019.6
20260507185054 61 272 2.0 8.0 0.00 0.00 0.00 80 1019.6
20260507184600 61 243 2.0 5.0 0.00 0.00 0.00 80 1019.7
20260507184054 61 233 1.0 8.0 0.00 0.00 0.00 80 1019.6
20260507183554 60 250 0.0 8.0 0.00 0.00 0.00 81 1019.7
20260507183055 60 221 2.0 8.0 0.00 0.00 0.00 80 1019.8
20260507182556 60 0 1.0 8.0 0.00 0.00 0.00 81 1019.9
20260507182054 59 290 4.0 8.0 0.00 0.00 0.00 81 1019.9
20260507181554 60 307 1.0 7.0 0.00 0.00 0.00 81 1019.8
20260507181054 60 265 2.0 6.0 0.00 0.00 0.00 80 1019.8
20260507180555 60 0 2.0 6.0 0.00 0.00 0.00 80 1019.8
20260507175554 60 0 1.0 7.0 0.00 0.00 0.00 81 1019.9
20260507175055 59 298 1.0 5.0 0.00 0.00 0.00 82 1019.8
20260507174613 59 262 1.0 5.0 0.00 0.00 0.00 82 1019.8
20260507174053 59 286 1.0 6.0 0.00 0.00 0.00 82 1019.7
20260507173556 59 0 1.0 6.0 0.00 0.00 0.00 81 1019.9
20260507173058 59 205 1.0 7.0 0.00 0.00 0.00 82 1019.8
20260507172557 59 282 1.0 7.0 0.00 0.00 0.00 83 1019.8
20260507172054 58 247 2.0 5.0 0.00 0.00 0.00 83 1019.8
20260507171613 58 165 1.0 5.0 0.00 0.00 0.00 83 1019.8
20260507171055 57 130 1.0 9.0 0.00 0.00 0.00 84 1019.8
20260507170554 57 240 2.0 9.0 0.00 0.00 0.00 85 1019.8
20260507170100 56 157 2.0 6.0 0.00 0.00 0.00 85 1019.7
20260507165554 56 214 1.0 7.0 0.00 0.00 0.00 85 1019.7
20260507165055 56 175 1.0 7.0 0.00 0.00 0.00 86 1019.9
20260507164603 56 218 4.0 7.0 0.00 0.00 0.00 86 1019.8
20260507164054 56 149 2.0 7.0 0.00 0.00 0.00 87 1019.8
20260507163555 55 196 3.0 7.0 0.00 0.00 0.00 87 1019.8
20260507163100 55 175 2.0 5.0 0.00 0.00 0.00 88 1019.7
20260507162554 55 221 2.0 6.0 0.00 0.00 0.00 88 1019.8
20260507162055 55 219 2.0 6.0 0.00 0.00 0.00 89 1019.7
20260507161601 55 234 1.0 6.0 0.00 0.00 0.00 89 1019.8
20260507161053 55 162 1.0 8.0 0.00 0.00 0.00 89 1019.7
20260507160556 55 157 3.0 8.0 0.00 0.00 0.00 89 1019.7
20260507160056 54 203 1.0 6.0 0.00 0.00 0.00 90 1019.8
20260507155554 54 143 1.0 6.0 0.00 0.00 0.00 90 1019.7
20260507155053 54 126 1.0 4.0 0.00 0.00 0.00 90 1019.8
20260507154602 54 153 1.0 5.0 0.00 0.00 0.00 90 1019.8
20260507154054 54 115 1.0 5.0 0.00 0.00 0.00 90 1019.8
20260507153554 54 151 1.0 7.0 0.00 0.00 0.00 90 1019.8
20260507153105 54 130 2.0 7.0 0.00 0.00 0.00 90 1019.8
20260507152554 54 150 3.0 7.0 0.00 0.00 0.00 91 1019.9
20260507152056 54 127 3.0 7.0 0.00 0.00 0.00 91 1019.8
20260507151554 54 183 0.0 6.0 0.00 0.00 0.00 91 1019.8
20260507151057 53 182 2.0 6.0 0.00 0.00 0.00 91 1019.8
20260507150552 53 154 2.0 6.0 0.00 0.00 0.00 91 1019.8
20260507150052 53 161 2.0 7.0 0.00 0.00 0.00 91 1019.8
20260507145554 53 178 2.0 7.0 0.00 0.00 0.00 91 1019.7